Fryeburg, ME

7:43 PM EST on December 12, 2017 (GMT -0500)
Eastern Slopes Regional

Weather History for KIZG - March, 2012

Change the Weather History Date:

Thursday, March 8, 2012

  Actual Average Record
Temperature  
Mean Temperature 52 °F -  
Max Temperature 64 °F 34 °F 64 °F (2012)
Min Temperature 39 °F 14 °F -16 °F (2007)
Degree Days  
Heating Degree Days 14    
Growing Degree Days 2 (Base 50)    
Moisture  
Dew Point 38 °F    
Average Humidity 53    
Maximum Humidity 65    
Minimum Humidity 43    
Precipitation  
Precipitation 0.00 in - - ()
Sea Level Pressure  
Sea Level Pressure 29.88 in    
Wind  
Wind Speed 8 mph (SSW)    
Max Wind Speed 15 mph    
Max Gust Speed 30 mph    
Visibility 10 miles    
Events      
Averages and records for this station are not official NWS values.
T = Trace of Precipitation, MM = Missing Value Source: NWS Daily Summary

Daily Weather History Graph

Daily Weather History Graph

Search for Another Location

Airport or City:

Trip Planner

Search our weather history database for the weather conditions in past years. The results will help you decide how hot, cold, wet, or windy it might be!

Date:

Astronomy

Mar. 08, 2012 Rise Set
Actual Time 6:07 AM EST 5:41 PM EST
Civil Twilight 5:39 AM EST 6:10 PM EST
Nautical Twilight 5:05 AM EST 6:44 PM EST
Astronomical Twilight 4:31 AM EST 7:17 PM EST
Moon 6:29 PM EST (3/8) 5:47 AM EST (3/8)
Length of Visible Light 12h 31m
Length of Day
11h 34m
Full, 100% of the Moon is Illuminated
Mar 8
Full
Mar 14
Last Quarter
Mar 22
New
Mar 30
First Quarter
Apr 6
Full

Hourly Weather History & Observations

Time (EST) Temp. Windchill Dew Point Humidity Pressure Visibility Wind Dir Wind Speed Gust Speed Precip Events Conditions
12:54 AM 46.9 °F - 27.0 °F 46% 30.14 in 10.0 mi SSW 6.9 mph - N/A   Clear
1:54 AM 46.0 °F - 27.0 °F 47% 30.11 in 10.0 mi Calm Calm - N/A   Clear
2:54 AM 48.9 °F - 28.0 °F 44% 30.08 in 10.0 mi SW 15.0 mph 20.7 mph N/A   Clear
3:54 AM 46.9 °F - 28.0 °F 48% 30.07 in 10.0 mi SW 6.9 mph - N/A   Clear
4:54 AM 44.1 °F 40.8 °F 28.0 °F 53% 30.07 in 10.0 mi SSW 5.8 mph - N/A   Clear
5:54 AM 39.9 °F - 28.9 °F 65% 30.06 in 10.0 mi Calm Calm - N/A   Clear
6:54 AM 45.0 °F - 32.0 °F 60% 30.05 in 10.0 mi Calm Calm - N/A   Clear
7:54 AM 48.9 °F - 34.0 °F 56% 30.04 in 10.0 mi SSW 6.9 mph - N/A   Clear
8:54 AM 51.1 °F - 36.0 °F 56% 30.01 in 10.0 mi SW 8.1 mph - N/A   Clear
9:54 AM 55.0 °F - 37.9 °F 53% 29.98 in 10.0 mi SSW 10.4 mph 25.3 mph N/A   Clear
10:54 AM 57.9 °F - 37.9 °F 47% 29.94 in 10.0 mi South 6.9 mph - N/A   Clear
11:54 AM 60.1 °F - 39.0 °F 46% 29.91 in 10.0 mi SSW 9.2 mph 19.6 mph N/A   Clear
12:54 PM 62.1 °F - 39.0 °F 43% 29.87 in 10.0 mi South 12.7 mph 23.0 mph N/A   Clear
1:54 PM 63.0 °F - 39.9 °F 43% 29.82 in 10.0 mi SSW 13.8 mph 23.0 mph N/A   Clear
2:54 PM 64.0 °F - 41.0 °F 43% 29.79 in 10.0 mi SSW 12.7 mph 29.9 mph N/A   Partly Cloudy
3:54 PM 63.0 °F - 42.1 °F 46% 29.78 in 10.0 mi SSW 13.8 mph 26.5 mph N/A   Mostly Cloudy
4:54 PM 62.1 °F - 42.1 °F 48% 29.78 in 10.0 mi SW 10.4 mph 21.9 mph N/A   Overcast
5:54 PM 60.1 °F - 43.0 °F 53% 29.76 in 10.0 mi SSW 11.5 mph 21.9 mph N/A   Overcast
6:54 PM 59.0 °F - 44.1 °F 58% 29.72 in 10.0 mi SSW 10.4 mph 26.5 mph N/A   Overcast
7:54 PM 59.0 °F - 45.0 °F 60% 29.69 in 10.0 mi SSW 10.4 mph 24.2 mph N/A   Overcast
8:54 PM 57.9 °F - 45.0 °F 62% 29.66 in 10.0 mi SW 10.4 mph 20.7 mph N/A   Scattered Clouds
9:54 PM 57.9 °F - 45.0 °F 62% 29.62 in 10.0 mi SSW 8.1 mph 23.0 mph N/A   Overcast
10:54 PM 57.9 °F - 45.0 °F 62% 29.58 in 10.0 mi SSW 12.7 mph 21.9 mph N/A   Mostly Cloudy
11:54 PM 59.0 °F - 46.0 °F 62% 29.54 in 10.0 mi SW 11.5 mph 21.9 mph N/A   Mostly Cloudy